TimeCST,TemperatureF,Dew PointF,Humidity,Sea Level PressureIn,VisibilityMPH,Wind Direction,Wind SpeedMPH,Gust SpeedMPH,PrecipitationIn,Events,Conditions,WindDirDegrees,DateUTC
6:00 AM,73,72,95,29.85,4,ESE,4.6,,,Rain,Light Rain,120,2012-10-25 12:00:00
6:00 AM,73.4,71.6,94,29.83,4.3,ESE,4.6,-,N/A,Rain,Rain,120,2012-10-25 12:00:00
6:15 AM,73.4,71.6,94,29.84,3.1,ESE,5.8,-,N/A,Rain,Rain,120,2012-10-25 12:15:00
7:00 AM,73.4,71.6,94,29.85,6.2,SE,5.8,-,N/A,Rain,Light Rain,130,2012-10-25 13:00:00
7:15 AM,73.4,71.6,94,29.87,5.0,SE,5.8,-,N/A,Rain,Light Rain,140,2012-10-25 13:15:00
8:00 AM,73.4,71.6,94,29.89,4.3,SE,4.6,-,N/A,Rain,Rain,140,2012-10-25 14:00:00
9:00 AM,73.4,71.6,94,29.90,4.3,SSE,5.8,-,N/A,Rain,Rain,150,2012-10-25 15:00:00
10:00 AM,73.4,73.4,100,29.89,5.0,SE,4.6,-,N/A,Rain,Rain,130,2012-10-25 16:00:00
11:00 AM,73.4,71.6,94,29.87,5.6,SE,5.8,-,N/A,Rain,Light Rain,140,2012-10-25 17:00:00
12:00 PM,74,72,93,29.88,6,SE,4.6,,,Rain,Light Rain,140,2012-10-25 18:00:00
12:00 PM,73.4,71.6,94,29.86,6.2,SE,4.6,-,N/A,,Mostly Cloudy,140,2012-10-25 18:00:00
1:00 PM,75.2,73.4,94,29.84,6.2,SE,4.6,-,N/A,,Light Drizzle,130,2012-10-25 19:00:00
2:00 PM,75.2,71.6,89,29.81,6.2,ESE,4.6,-,N/A,Rain,Light Rain,110,2012-10-25 20:00:00
3:00 PM,76,74,91,,6,SE,4.6,,,,Clear,130,2012-10-25 21:00:00
3:00 PM,75.2,73.4,94,29.80,6.2,SE,4.6,-,N/A,Rain,Light Rain,130,2012-10-25 21:00:00
4:00 PM,73.4,73.4,100,29.81,3.1,SE,5.8,-,N/A,,Drizzle,140,2012-10-25 22:00:00
5:00 PM,73.4,71.6,94,29.82,6.2,East,5.8,-,N/A,Fog-Rain,Light Rain,100,2012-10-25 23:00:00
6:00 PM,74,72,91,29.85,9,East,4.6,,,,Overcast,90,2012-10-26 00:00:00
6:00 PM,73.4,71.6,94,29.83,6.2,East,4.6,-,N/A,,Scattered Clouds,90,2012-10-26 00:00:00
7:00 PM,73.4,73.4,100,29.85,3.1,Calm,Calm,-,N/A,Rain,Light Rain,0,2012-10-26 01:00:00
8:00 PM,73.4,71.6,94,29.87,5.0,ESE,5.8,-,N/A,Rain,Rain,120,2012-10-26 02:00:00